Regional Weather Roundup
Issued by NWS

Home | Current Version | Previous Version | Graphics & Text | Print | Product List | Glossary On
Versions: 1 2 3 4 5 6 7 8 9 10 11 12 13 14 15 16 17 18 19 20 21 22 23 24 25 26 27 28 29 30 31 32 33 34 35 36 37 38 39 40 41 42 43 44 45 46 47 48 49 50
749
ASUS45 KCYS 231210
RWRWY

WYOMING REGIONAL WEATHER ROUNDUP
NATIONAL WEATHER SERVICE CHEYENNE WY
500 AM MST FRI FEB 23 2018

NOTE:  "FAIR" INDICATES FEW OR NO CLOUDS BELOW 12,000 FEET
WITH NO SIGNIFICANT WEATHER AND/OR OBSTRUCTIONS TO VISIBILITY.

WYZ001-231300-
YELLOWSTONE NATIONAL PARK

CITY           SKY/WX    TMP DP  RH WIND       PRES   REMARKS
LK YELLOWSTONE   N/A     -9 -13  83 CALM      29.90S
6HR MIN TEMP: -12; 6HR MAX TEMP:  -5;

W YELLOWSTONE  NOT AVBL

$$
WYZ002>013-054>058-071-098>099-231300-
NORTHERN WYOMING

CITY           SKY/WX    TMP DP  RH WIND       PRES   REMARKS
JACKSON        LGT SNOW   6   2  83 N7        29.94R FOG     WCI  -6
CODY           FAIR      -3  -9  75 S5        30.02S WCI -13
GREYBULL       FAIR     -14 -16  91 CALM      30.13S
6HR MIN TEMP: -14; 6HR MAX TEMP:  -6;

WORLAND        FAIR      -8 -11  86 S5        30.09S WCI -19
6HR MIN TEMP: -10; 6HR MAX TEMP:  -1;

SHERIDAN       FAIR      -6 -10  83 CALM      30.08S
6HR MIN TEMP: -10; 6HR MAX TEMP:   0;

BUFFALO        FAIR       6  -5  60 S9        30.01S WCI  -8
6HR MIN TEMP:   3; 6HR MAX TEMP:  12;

GILLETTE       FAIR      -8 -12  83 S9        30.06F WCI -25
6HR MIN TEMP: -15; 6HR MAX TEMP:  -2;

HULETT         FAIR       1  -8  66 MISG      30.09R
NEWCASTLE      FAIR       0  -8  71 N6        30.09S WCI -12

$$
WYZ014>020-022>026-101>103-231300-
CENTRAL WYOMING

CITY           SKY/WX    TMP DP  RH WIND       PRES   REMARKS
BIG PINEY      LGT SNOW   1  -4  79 CALM      29.92R
6HR MIN TEMP:  -1; 6HR MAX TEMP:   8; 6HR PCP: TRACE;

PINEDALE       CLOUDY     1  -4  78 NW7       29.92R WCI -11
DUBOIS           N/A    N/A N/A N/A MISG        N/A
LANDER         FAIR      -5  -7  91 SE5       29.99R WCI -16
6HR MIN TEMP:  -5; 6HR MAX TEMP:   5;

RIVERTON       FAIR      -1  -7  75 W7        30.01R WCI -14
6HR MIN TEMP:  -3; 6HR MAX TEMP:   5;

CASPER         FAIR     -14 -18  82 N3        30.02S
6HR MIN TEMP: -15; 6HR MAX TEMP:  -2;

DOUGLAS        FAIR     -11 -16  78 CALM      30.07R
6HR MIN TEMP: -11; 6HR MAX TEMP:  -2;


$$
WYZ021-027>030-104>119-231300-
SOUTHERN WYOMING

CITY           SKY/WX    TMP DP  RH WIND       PRES   REMARKS
EVANSTON       CLOUDY     6   2  83 E14       29.85S WCI -11
6HR MIN TEMP:   5; 6HR MAX TEMP:  10; 6HR PCP: TRACE;

FORT BRIDGER   FLURRIES   1  -2  85 CALM      29.92
ROCK SPRINGS   CLOUDY     4   0  83 NE6       29.90S FOG     WCI  -7
6HR MIN TEMP:   3; 6HR MAX TEMP:  10;

DIXON          CLOUDY    20  16  84 NE7       29.96R WCI  11
RAWLINS        FAIR       6   3  87 E7        29.93S WCI  -6
6HR MIN TEMP:   6; 6HR MAX TEMP:  15;

SARATOGA       CLOUDY    16  12  86 SE10      29.93S WCI   3
LARAMIE        FAIR       4   3  96 S8        29.92R WCI  -9
6HR MIN TEMP:   0; 6HR MAX TEMP:  12; 6HR PCP: TRACE;

CHEYENNE       FAIR      11   8  88 W3        29.97S
6HR MIN TEMP:  10; 6HR MAX TEMP:  15;

TORRINGTON     FAIR       6   2  83 NW6       30.08R WCI  -4
6HR MIN TEMP:   6; 6HR MAX TEMP:  15;

PINE BLUFFS    FAIR       5   3  92 SW3       30.03S

$$




USA.gov is the U.S. government's official web portal to all federal, state and local government web resources and services.